Location: Unspecified
(51.0000°N, 12.0000°E)
Time: 20:14:52
(UTC+01:00)

ISS - Pass Details

Date: 13 January 2018
Orbit: 402 x 407 km, 51.6° (Epoch: 20 January)

Event Time Altitude Azimuth Distance (km) Brightness Sun altitude
Exits shadow 07:06:41 - 253° (WSW) 1,589 -1.3 -9.6°
Reaches altitude 10° 07:07:26 10° 241° (WSW) 1,464 -1.4 -9.5°
Maximum altitude 07:08:27 11° 223° (SW) 1,397 -1.3 -9.4°
Drops below altitude 10° 07:09:27 10° 205° (SSW) 1,462 -1.0 -9.2°
Sets 07:12:48 0° 168° (SSE) 2,317 0.6 -8.8°
